Year,Month,Day,Hour,Minute,Value (Times are PST for insolation in W/m^2)
2017,05,30,00,00,0.00
2017,05,30,00,01,0.00
2017,05,30,00,02,0.00
2017,05,30,00,03,0.00
2017,05,30,00,04,0.00
2017,05,30,00,05,0.00
2017,05,30,00,06,0.00
2017,05,30,00,07,0.00
2017,05,30,00,08,0.00
2017,05,30,00,09,0.00
2017,05,30,00,10,0.00
2017,05,30,00,11,0.00
2017,05,30,00,12,0.00
2017,05,30,00,13,0.00
2017,05,30,00,14,0.00
2017,05,30,00,15,0.00
2017,05,30,00,16,0.00
2017,05,30,00,17,0.00
2017,05,30,00,18,0.00
2017,05,30,00,19,0.00
2017,05,30,00,20,0.00
2017,05,30,00,21,0.00
2017,05,30,00,22,0.00
2017,05,30,00,23,0.00
2017,05,30,00,24,0.00
2017,05,30,00,25,0.00
2017,05,30,00,26,0.00
2017,05,30,00,27,0.00
2017,05,30,00,28,0.00
2017,05,30,00,29,0.00
2017,05,30,00,30,0.00
2017,05,30,00,31,0.00
2017,05,30,00,32,0.00
2017,05,30,00,33,0.00
2017,05,30,00,34,0.00
2017,05,30,00,35,0.00
2017,05,30,00,36,0.00
2017,05,30,00,37,0.00
2017,05,30,00,38,0.00
2017,05,30,00,39,0.00
2017,05,30,00,40,0.00
2017,05,30,00,41,0.00
2017,05,30,00,42,0.00
2017,05,30,00,43,0.00
2017,05,30,00,44,0.00
2017,05,30,00,45,0.00
2017,05,30,00,46,0.00
2017,05,30,00,47,0.00
2017,05,30,00,48,0.00
2017,05,30,00,49,0.00
2017,05,30,00,50,0.00
2017,05,30,00,51,0.00
2017,05,30,00,52,0.00
2017,05,30,00,53,0.00
2017,05,30,00,54,0.00
2017,05,30,00,55,0.00
2017,05,30,00,56,0.00
2017,05,30,00,57,0.00
2017,05,30,00,58,0.00
2017,05,30,00,59,0.00
2017,05,30,01,00,0.00
2017,05,30,01,01,0.00
2017,05,30,01,02,0.00
2017,05,30,01,03,0.00
2017,05,30,01,04,0.00
2017,05,30,01,05,0.00
2017,05,30,01,06,0.00
2017,05,30,01,07,0.00
2017,05,30,01,08,0.00
2017,05,30,01,09,0.00
2017,05,30,01,10,0.00
2017,05,30,01,11,0.00
2017,05,30,01,12,0.00
2017,05,30,01,13,0.00
2017,05,30,01,14,0.00
2017,05,30,01,15,0.00
2017,05,30,01,16,0.00
2017,05,30,01,17,0.00
2017,05,30,01,18,0.00
2017,05,30,01,19,0.00
2017,05,30,01,20,0.00
2017,05,30,01,21,0.00
2017,05,30,01,22,0.00
2017,05,30,01,23,0.00
2017,05,30,01,24,0.00
2017,05,30,01,25,0.00
2017,05,30,01,26,0.00
2017,05,30,01,27,0.00
2017,05,30,01,28,0.00
2017,05,30,01,29,0.00
2017,05,30,01,30,0.00
2017,05,30,01,31,0.00
2017,05,30,01,32,0.00
2017,05,30,01,33,0.00
2017,05,30,01,34,0.00
2017,05,30,01,35,0.00
2017,05,30,01,36,0.00
2017,05,30,01,37,0.00
2017,05,30,01,38,0.00
2017,05,30,01,39,0.00
2017,05,30,01,40,0.00
2017,05,30,01,41,0.00
2017,05,30,01,42,0.00
2017,05,30,01,43,0.00
2017,05,30,01,44,0.00
2017,05,30,01,45,0.00
2017,05,30,01,46,0.00
2017,05,30,01,47,0.00
2017,05,30,01,48,0.00
2017,05,30,01,49,0.00
2017,05,30,01,50,0.00
2017,05,30,01,51,0.00
2017,05,30,01,52,0.00
2017,05,30,01,53,0.00
2017,05,30,01,54,0.00
2017,05,30,01,55,0.00
2017,05,30,01,56,0.00
2017,05,30,01,57,0.00
2017,05,30,01,58,0.00
2017,05,30,01,59,0.00
2017,05,30,02,00,0.00
2017,05,30,02,01,0.00
2017,05,30,02,02,0.00
2017,05,30,02,03,0.00
2017,05,30,02,04,0.00
2017,05,30,02,05,0.00
2017,05,30,02,06,0.00
2017,05,30,02,07,0.00
2017,05,30,02,08,0.00
2017,05,30,02,09,0.00
2017,05,30,02,10,0.00
2017,05,30,02,11,0.00
2017,05,30,02,12,0.00
2017,05,30,02,13,0.00
2017,05,30,02,14,0.00
2017,05,30,02,15,0.00
2017,05,30,02,16,0.00
2017,05,30,02,17,0.00
2017,05,30,02,18,0.00
2017,05,30,02,19,0.00
2017,05,30,02,20,0.00
2017,05,30,02,21,0.00
2017,05,30,02,22,0.00
2017,05,30,02,23,0.00
2017,05,30,02,24,0.00
2017,05,30,02,25,0.00
2017,05,30,02,26,0.00
2017,05,30,02,27,0.00
2017,05,30,02,28,0.00
2017,05,30,02,29,0.00
2017,05,30,02,30,0.00
2017,05,30,02,31,0.00
2017,05,30,02,32,0.00
2017,05,30,02,33,0.00
2017,05,30,02,34,0.00
2017,05,30,02,35,0.00
2017,05,30,02,36,0.00
2017,05,30,02,37,0.00
2017,05,30,02,38,0.00
2017,05,30,02,39,0.00
2017,05,30,02,40,0.00
2017,05,30,02,41,0.00
2017,05,30,02,42,0.00
2017,05,30,02,43,0.00
2017,05,30,02,44,0.00
2017,05,30,02,45,0.00
2017,05,30,02,46,0.00
2017,05,30,02,47,0.00
2017,05,30,02,48,0.00
2017,05,30,02,49,0.00
2017,05,30,02,50,0.00
2017,05,30,02,51,0.00
2017,05,30,02,52,0.00
2017,05,30,02,53,0.00
2017,05,30,02,54,0.00
2017,05,30,02,55,0.00
2017,05,30,02,56,0.00
2017,05,30,02,57,0.00
2017,05,30,02,58,0.00
2017,05,30,02,59,0.00
2017,05,30,03,00,0.00
2017,05,30,03,01,0.00
2017,05,30,03,02,0.00
2017,05,30,03,03,0.00
2017,05,30,03,04,0.00
2017,05,30,03,05,0.00
2017,05,30,03,06,0.00
2017,05,30,03,07,0.00
2017,05,30,03,08,0.00
2017,05,30,03,09,0.00
2017,05,30,03,10,0.00
2017,05,30,03,11,0.00
2017,05,30,03,12,0.00
2017,05,30,03,13,0.00
2017,05,30,03,14,0.00
2017,05,30,03,15,0.00
2017,05,30,03,16,0.00
2017,05,30,03,17,0.00
2017,05,30,03,18,0.00
2017,05,30,03,19,0.00
2017,05,30,03,20,0.00
2017,05,30,03,21,0.00
2017,05,30,03,22,0.00
2017,05,30,03,23,0.00
2017,05,30,03,24,0.00
2017,05,30,03,25,0.00
2017,05,30,03,26,0.00
2017,05,30,03,27,0.00
2017,05,30,03,28,0.00
2017,05,30,03,29,0.00
2017,05,30,03,30,0.00
2017,05,30,03,31,0.00
2017,05,30,03,32,0.00
2017,05,30,03,33,0.00
2017,05,30,03,34,0.00
2017,05,30,03,35,0.00
2017,05,30,03,36,0.00
2017,05,30,03,37,0.00
2017,05,30,03,38,0.00
2017,05,30,03,39,0.00
2017,05,30,03,40,0.00
2017,05,30,03,41,0.00
2017,05,30,03,42,0.00
2017,05,30,03,43,0.00
2017,05,30,03,44,0.00
2017,05,30,03,45,0.00
2017,05,30,03,46,0.00
2017,05,30,03,47,0.00
2017,05,30,03,48,0.00
2017,05,30,03,49,0.00
2017,05,30,03,50,0.00
2017,05,30,03,51,0.00
2017,05,30,03,52,0.00
2017,05,30,03,53,0.00
2017,05,30,03,54,0.00
2017,05,30,03,55,0.00
2017,05,30,03,56,0.00
2017,05,30,03,57,0.00
2017,05,30,03,58,0.00
2017,05,30,03,59,0.00
2017,05,30,04,00,0.00
2017,05,30,04,01,0.00
2017,05,30,04,02,0.00
2017,05,30,04,03,0.00
2017,05,30,04,04,0.00
2017,05,30,04,05,0.00
2017,05,30,04,06,0.00
2017,05,30,04,07,0.00
2017,05,30,04,08,0.00
2017,05,30,04,09,0.00
2017,05,30,04,10,0.00
2017,05,30,04,11,0.00
2017,05,30,04,12,0.00
2017,05,30,04,13,0.00
2017,05,30,04,14,0.00
2017,05,30,04,15,0.00
2017,05,30,04,16,0.00
2017,05,30,04,17,0.00
2017,05,30,04,18,0.00
2017,05,30,04,19,0.00
2017,05,30,04,20,0.00
2017,05,30,04,21,0.00
2017,05,30,04,22,0.00
2017,05,30,04,23,0.00
2017,05,30,04,24,0.00
2017,05,30,04,25,0.00
2017,05,30,04,26,0.00
2017,05,30,04,27,0.00
2017,05,30,04,28,0.00
2017,05,30,04,29,0.00
2017,05,30,04,30,0.00
2017,05,30,04,31,0.00
2017,05,30,04,32,0.00
2017,05,30,04,33,0.00
2017,05,30,04,34,0.00
2017,05,30,04,35,0.00
2017,05,30,04,36,0.00
2017,05,30,04,37,0.00
2017,05,30,04,38,0.00
2017,05,30,04,39,0.00
2017,05,30,04,40,0.00
2017,05,30,04,41,0.00
2017,05,30,04,42,0.00
2017,05,30,04,43,0.00
2017,05,30,04,44,0.00
2017,05,30,04,45,0.00
2017,05,30,04,46,0.00
2017,05,30,04,47,0.00
2017,05,30,04,48,0.00
2017,05,30,04,49,0.00
2017,05,30,04,50,0.00
2017,05,30,04,51,0.00
2017,05,30,04,52,0.00
2017,05,30,04,53,0.00
2017,05,30,04,54,0.00
2017,05,30,04,55,0.00
2017,05,30,04,56,0.00
2017,05,30,04,57,0.00
2017,05,30,04,58,0.00
2017,05,30,04,59,0.00
2017,05,30,05,00,0.00
2017,05,30,05,01,0.00
2017,05,30,05,02,0.00
2017,05,30,05,03,0.00
2017,05,30,05,04,0.00
2017,05,30,05,05,0.00
2017,05,30,05,06,0.00
2017,05,30,05,07,0.00
2017,05,30,05,08,0.00
2017,05,30,05,09,0.00
2017,05,30,05,10,0.00
2017,05,30,05,11,0.00
2017,05,30,05,12,0.00
2017,05,30,05,13,0.00
2017,05,30,05,14,0.00
2017,05,30,05,15,0.00
2017,05,30,05,16,0.00
2017,05,30,05,17,0.00
2017,05,30,05,18,0.00
2017,05,30,05,19,0.00
2017,05,30,05,20,0.00
2017,05,30,05,21,0.00
2017,05,30,05,22,0.00
2017,05,30,05,23,0.00
2017,05,30,05,24,0.00
2017,05,30,05,25,0.00
2017,05,30,05,26,0.00
2017,05,30,05,27,4.80
2017,05,30,05,28,5.00
2017,05,30,05,29,5.00
2017,05,30,05,30,6.00
2017,05,30,05,31,7.00
2017,05,30,05,32,7.00
2017,05,30,05,33,10.40
2017,05,30,05,34,11.10
2017,05,30,05,35,12.00
2017,05,30,05,36,12.70
2017,05,30,05,37,15.00
2017,05,30,05,38,16.00
2017,05,30,05,39,17.50
2017,05,30,05,40,18.00
2017,05,30,05,41,19.30
2017,05,30,05,42,21.00
2017,05,30,05,43,21.00
2017,05,30,05,44,22.00
2017,05,30,05,45,23.00
2017,05,30,05,46,23.00
2017,05,30,05,47,24.70
2017,05,30,05,48,25.00
2017,05,30,05,49,25.20
2017,05,30,05,50,26.00
2017,05,30,05,51,26.00
2017,05,30,05,52,27.20
2017,05,30,05,53,28.00
2017,05,30,05,54,28.00
2017,05,30,05,55,28.30
2017,05,30,05,56,30.00
2017,05,30,05,57,30.00
2017,05,30,05,58,30.00
2017,05,30,05,59,30.00
2017,05,30,06,00,31.50
2017,05,30,06,01,32.00
2017,05,30,06,02,32.00
2017,05,30,06,03,32.20
2017,05,30,06,04,33.00
2017,05,30,06,05,33.00
2017,05,30,06,06,34.20
2017,05,30,06,07,35.00
2017,05,30,06,08,36.80
2017,05,30,06,09,37.20
2017,05,30,06,10,39.20
2017,05,30,06,11,40.00
2017,05,30,06,12,40.00
2017,05,30,06,13,42.50
2017,05,30,06,14,44.00
2017,05,30,06,15,44.00
2017,05,30,06,16,44.00
2017,05,30,06,17,44.00
2017,05,30,06,18,44.00
2017,05,30,06,19,43.00
2017,05,30,06,20,42.00
2017,05,30,06,21,40.50
2017,05,30,06,22,39.10
2017,05,30,06,23,36.70
2017,05,30,06,24,35.00
2017,05,30,06,25,35.80
2017,05,30,06,26,38.00
2017,05,30,06,27,39.60
2017,05,30,06,28,43.00
2017,05,30,06,29,45.70
2017,05,30,06,30,46.00
2017,05,30,06,31,45.50
2017,05,30,06,32,44.00
2017,05,30,06,33,44.00
2017,05,30,06,34,44.00
2017,05,30,06,35,44.00
2017,05,30,06,36,42.30
2017,05,30,06,37,40.00
2017,05,30,06,38,40.00
2017,05,30,06,39,40.00
2017,05,30,06,40,44.70
2017,05,30,06,41,51.50
2017,05,30,06,42,53.80
2017,05,30,06,43,57.40
2017,05,30,06,44,62.30
2017,05,30,06,45,65.50
2017,05,30,06,46,67.00
2017,05,30,06,47,68.40
2017,05,30,06,48,72.50
2017,05,30,06,49,74.00
2017,05,30,06,50,72.20
2017,05,30,06,51,68.70
2017,05,30,06,52,67.00
2017,05,30,06,53,67.00
2017,05,30,06,54,67.00
2017,05,30,06,55,64.50
2017,05,30,06,56,63.00
2017,05,30,06,57,55.20
2017,05,30,06,58,53.00
2017,05,30,06,59,53.00
2017,05,30,07,00,53.00
2017,05,30,07,01,53.00
2017,05,30,07,02,53.00
2017,05,30,07,03,53.00
2017,05,30,07,04,53.00
2017,05,30,07,05,54.30
2017,05,30,07,06,56.50
2017,05,30,07,07,58.70
2017,05,30,07,08,61.00
2017,05,30,07,09,62.60
2017,05,30,07,10,63.00
2017,05,30,07,11,64.80
2017,05,30,07,12,64.80
2017,05,30,07,13,62.30
2017,05,30,07,14,59.20
2017,05,30,07,15,57.00
2017,05,30,07,16,57.20
2017,05,30,07,17,58.00
2017,05,30,07,18,62.30
2017,05,30,07,19,67.40
2017,05,30,07,20,70.40
2017,05,30,07,21,72.00
2017,05,30,07,22,72.00
2017,05,30,07,23,72.00
2017,05,30,07,24,72.00
2017,05,30,07,25,72.00
2017,05,30,07,26,74.40
2017,05,30,07,27,78.40
2017,05,30,07,28,84.80
2017,05,30,07,29,89.40
2017,05,30,07,30,92.20
2017,05,30,07,31,94.40
2017,05,30,07,32,97.60
2017,05,30,07,33,104.00
2017,05,30,07,34,104.00
2017,05,30,07,35,104.00
2017,05,30,07,36,107.40
2017,05,30,07,37,112.90
2017,05,30,07,38,115.50
2017,05,30,07,39,116.00
2017,05,30,07,40,118.00
2017,05,30,07,41,119.40
2017,05,30,07,42,123.70
2017,05,30,07,43,125.00
2017,05,30,07,44,125.00
2017,05,30,07,45,125.00
2017,05,30,07,46,125.00
2017,05,30,07,47,123.00
2017,05,30,07,48,122.40
2017,05,30,07,49,120.30
2017,05,30,07,50,121.00
2017,05,30,07,51,122.20
2017,05,30,07,52,125.90
2017,05,30,07,53,133.00
2017,05,30,07,54,143.00
2017,05,30,07,55,149.00
2017,05,30,07,56,151.50
2017,05,30,07,57,157.90
2017,05,30,07,58,161.20
2017,05,30,07,59,162.80
2017,05,30,08,00,163.00
2017,05,30,08,01,164.70
2017,05,30,08,02,160.10
2017,05,30,08,03,148.90
2017,05,30,08,04,138.10
2017,05,30,08,05,134.40
2017,05,30,08,06,136.20
2017,05,30,08,07,141.30
2017,05,30,08,08,144.00
2017,05,30,08,09,143.30
2017,05,30,08,10,139.60
2017,05,30,08,11,137.00
2017,05,30,08,12,142.60
2017,05,30,08,13,155.10
2017,05,30,08,14,158.00
2017,05,30,08,15,171.00
2017,05,30,08,16,177.30
2017,05,30,08,17,204.50
2017,05,30,08,18,222.30
2017,05,30,08,19,216.40
2017,05,30,08,20,206.80
2017,05,30,08,21,202.60
2017,05,30,08,22,184.40
2017,05,30,08,23,181.70
2017,05,30,08,24,195.30
2017,05,30,08,25,202.10
2017,05,30,08,26,193.80
2017,05,30,08,27,186.20
2017,05,30,08,28,173.80
2017,05,30,08,29,172.00
2017,05,30,08,30,172.00
2017,05,30,08,31,161.40
2017,05,30,08,32,146.60
2017,05,30,08,33,156.10
2017,05,30,08,34,160.00
2017,05,30,08,35,176.30
2017,05,30,08,36,177.40
2017,05,30,08,37,172.00
2017,05,30,08,38,175.40
2017,05,30,08,39,185.50
2017,05,30,08,40,190.00
2017,05,30,08,41,200.50
2017,05,30,08,42,202.30
2017,05,30,08,43,218.00
2017,05,30,08,44,216.30
2017,05,30,08,45,211.80
2017,05,30,08,46,212.00
2017,05,30,08,47,226.50
2017,05,30,08,48,245.00
2017,05,30,08,49,221.50
2017,05,30,08,50,214.20
2017,05,30,08,51,200.20
2017,05,30,08,52,207.20
2017,05,30,08,53,213.00
2017,05,30,08,54,222.90
2017,05,30,08,55,212.30
2017,05,30,08,56,207.00
2017,05,30,08,57,192.20
2017,05,30,08,58,184.30
2017,05,30,08,59,179.00
2017,05,30,09,00,179.00
2017,05,30,09,01,197.60
2017,05,30,09,02,237.10
2017,05,30,09,03,246.00
2017,05,30,09,04,255.30
2017,05,30,09,05,251.80
2017,05,30,09,06,238.00
2017,05,30,09,07,267.60
2017,05,30,09,08,284.70
2017,05,30,09,09,289.20
2017,05,30,09,10,309.80
2017,05,30,09,11,321.10
2017,05,30,09,12,313.00
2017,05,30,09,13,313.00
2017,05,30,09,14,317.50
2017,05,30,09,15,319.50
2017,05,30,09,16,274.60
2017,05,30,09,17,293.30
2017,05,30,09,18,265.10
2017,05,30,09,19,265.00
2017,05,30,09,20,246.50
2017,05,30,09,21,254.40
2017,05,30,09,22,263.60
2017,05,30,09,23,255.00
2017,05,30,09,24,263.10
2017,05,30,09,25,264.70
2017,05,30,09,26,269.20
2017,05,30,09,27,310.60
2017,05,30,09,28,324.40
2017,05,30,09,29,309.00
2017,05,30,09,30,311.90
2017,05,30,09,31,320.80
2017,05,30,09,32,342.20
2017,05,30,09,33,341.20
2017,05,30,09,34,315.00
2017,05,30,09,35,307.00
2017,05,30,09,36,286.00
2017,05,30,09,37,268.20
2017,05,30,09,38,265.00
2017,05,30,09,39,241.40
2017,05,30,09,40,236.30
2017,05,30,09,41,234.80
2017,05,30,09,42,240.00
2017,05,30,09,43,252.70
2017,05,30,09,44,258.00
2017,05,30,09,45,258.00
2017,05,30,09,46,248.80
2017,05,30,09,47,230.00
2017,05,30,09,48,225.40
2017,05,30,09,49,222.70
2017,05,30,09,50,227.00
2017,05,30,09,51,227.00
2017,05,30,09,52,229.60
2017,05,30,09,53,240.50
2017,05,30,09,54,254.00
2017,05,30,09,55,258.10
2017,05,30,09,56,276.00
2017,05,30,09,57,292.00
2017,05,30,09,58,292.00
2017,05,30,09,59,310.10
2017,05,30,10,00,309.10
2017,05,30,10,01,285.00
2017,05,30,10,02,290.30
2017,05,30,10,03,291.80
2017,05,30,10,04,283.70
2017,05,30,10,05,292.00
2017,05,30,10,06,306.10
2017,05,30,10,07,301.50
2017,05,30,10,08,320.00
2017,05,30,10,09,320.00
2017,05,30,10,10,314.70
2017,05,30,10,11,292.00
2017,05,30,10,12,295.50
2017,05,30,10,13,275.10
2017,05,30,10,14,264.10
2017,05,30,10,15,272.00
2017,05,30,10,16,297.60
2017,05,30,10,17,291.50
2017,05,30,10,18,270.30
2017,05,30,10,19,265.00
2017,05,30,10,20,270.70
2017,05,30,10,21,282.00
2017,05,30,10,22,288.00
2017,05,30,10,23,289.40
2017,05,30,10,24,285.00
2017,05,30,10,25,269.30
2017,05,30,10,26,259.50
2017,05,30,10,27,257.10
2017,05,30,10,28,270.20
2017,05,30,10,29,285.00
2017,05,30,10,30,290.70
2017,05,30,10,31,304.90
2017,05,30,10,32,309.00
2017,05,30,10,33,345.40
2017,05,30,10,34,380.20
2017,05,30,10,35,439.70
2017,05,30,10,36,477.00
2017,05,30,10,37,485.10
2017,05,30,10,38,489.00
2017,05,30,10,39,489.00
2017,05,30,10,40,376.50
2017,05,30,10,41,336.40
2017,05,30,10,42,380.00
2017,05,30,10,43,380.00
2017,05,30,10,44,380.00
2017,05,30,10,45,336.00
2017,05,30,10,46,283.50
2017,05,30,10,47,270.90
2017,05,30,10,48,267.30
2017,05,30,10,49,272.10
2017,05,30,10,50,279.00
2017,05,30,10,51,281.30
2017,05,30,10,52,281.40
2017,05,30,10,53,278.00
2017,05,30,10,54,261.30
2017,05,30,10,55,242.90
2017,05,30,10,56,223.30
2017,05,30,10,57,213.00
2017,05,30,10,58,213.00
2017,05,30,10,59,232.30
2017,05,30,11,00,262.70
2017,05,30,11,01,280.60
2017,05,30,11,02,292.80
2017,05,30,11,03,287.30
2017,05,30,11,04,257.50
2017,05,30,11,05,223.40
2017,05,30,11,06,194.50
2017,05,30,11,07,183.00
2017,05,30,11,08,165.80
2017,05,30,11,09,154.00
2017,05,30,11,10,149.00
2017,05,30,11,11,148.00
2017,05,30,11,12,148.00
2017,05,30,11,13,148.00
2017,05,30,11,14,148.00
2017,05,30,11,15,132.80
2017,05,30,11,16,127.00
2017,05,30,11,17,127.10
2017,05,30,11,18,130.20
2017,05,30,11,19,142.30
2017,05,30,11,20,161.90
2017,05,30,11,21,184.90
2017,05,30,11,22,204.90
2017,05,30,11,23,221.50
2017,05,30,11,24,226.40
2017,05,30,11,25,258.90
2017,05,30,11,26,274.60
2017,05,30,11,27,281.00
2017,05,30,11,28,281.00
2017,05,30,11,29,293.00
2017,05,30,11,30,301.30
2017,05,30,11,31,312.00
2017,05,30,11,32,319.80
2017,05,30,11,33,325.80
2017,05,30,11,34,328.50
2017,05,30,11,35,330.00
2017,05,30,11,36,336.80
2017,05,30,11,37,345.30
2017,05,30,11,38,346.00
2017,05,30,11,39,343.30
2017,05,30,11,40,330.90
2017,05,30,11,41,324.00
2017,05,30,11,42,322.40
2017,05,30,11,43,324.20
2017,05,30,11,44,326.70
2017,05,30,11,45,323.00
2017,05,30,11,46,321.80
2017,05,30,11,47,316.10
2017,05,30,11,48,313.00
2017,05,30,11,49,313.00
2017,05,30,11,50,315.20
2017,05,30,11,51,322.00
2017,05,30,11,52,327.00
2017,05,30,11,53,356.10
2017,05,30,11,54,371.20
2017,05,30,11,55,383.20
2017,05,30,11,56,390.30
2017,05,30,11,57,397.10
2017,05,30,11,58,399.00
2017,05,30,11,59,399.00
2017,05,30,12,00,399.00
2017,05,30,12,01,393.50
2017,05,30,12,02,380.60
2017,05,30,12,03,372.40
2017,05,30,12,04,367.50
2017,05,30,12,05,362.70
2017,05,30,12,06,353.80
2017,05,30,12,07,344.80
2017,05,30,12,08,341.00
2017,05,30,12,09,341.00
2017,05,30,12,10,333.30
2017,05,30,12,11,324.50
2017,05,30,12,12,323.00
2017,05,30,12,13,323.00
2017,05,30,12,14,316.00
2017,05,30,12,15,292.60
2017,05,30,12,16,290.00
2017,05,30,12,17,292.50
2017,05,30,12,18,297.80
2017,05,30,12,19,305.00
2017,05,30,12,20,307.30
2017,05,30,12,21,318.50
2017,05,30,12,22,320.00
2017,05,30,12,23,320.00
2017,05,30,12,24,321.20
2017,05,30,12,25,324.30
2017,05,30,12,26,329.40
2017,05,30,12,27,336.30
2017,05,30,12,28,341.00
2017,05,30,12,29,340.30
2017,05,30,12,30,337.60
2017,05,30,12,31,334.80
2017,05,30,12,32,336.90
2017,05,30,12,33,342.30
2017,05,30,12,34,351.20
2017,05,30,12,35,359.00
2017,05,30,12,36,359.00
2017,05,30,12,37,351.80
2017,05,30,12,38,335.90
2017,05,30,12,39,319.90
2017,05,30,12,40,303.10
2017,05,30,12,41,288.00
2017,05,30,12,42,284.60
2017,05,30,12,43,272.00
2017,05,30,12,44,267.20
2017,05,30,12,45,262.00
2017,05,30,12,46,262.00
2017,05,30,12,47,240.40
2017,05,30,12,48,238.00
2017,05,30,12,49,245.50
2017,05,30,12,50,248.50
2017,05,30,12,51,243.40
2017,05,30,12,52,241.00
2017,05,30,12,53,234.20
2017,05,30,12,54,233.90
2017,05,30,12,55,237.40
2017,05,30,12,56,241.00
2017,05,30,12,57,241.00
2017,05,30,12,58,241.00
2017,05,30,12,59,248.00
2017,05,30,13,00,253.00
2017,05,30,13,01,268.50
2017,05,30,13,02,272.00
2017,05,30,13,03,273.50
2017,05,30,13,04,278.00
2017,05,30,13,05,286.20
2017,05,30,13,06,303.50
2017,05,30,13,07,317.00
2017,05,30,13,08,320.00
2017,05,30,13,09,307.40
2017,05,30,13,10,290.10
2017,05,30,13,11,278.00
2017,05,30,13,12,273.50
2017,05,30,13,13,273.20
2017,05,30,13,14,282.50
2017,05,30,13,15,299.60
2017,05,30,13,16,315.80
2017,05,30,13,17,326.60
2017,05,30,13,18,320.20
2017,05,30,13,19,300.90
2017,05,30,13,20,280.10
2017,05,30,13,21,274.00
2017,05,30,13,22,263.70
2017,05,30,13,23,265.80
2017,05,30,13,24,271.20
2017,05,30,13,25,270.90
2017,05,30,13,26,269.00
2017,05,30,13,27,269.00
2017,05,30,13,28,269.00
2017,05,30,13,29,297.40
2017,05,30,13,30,302.00
2017,05,30,13,31,308.80
2017,05,30,13,32,332.80
2017,05,30,13,33,347.00
2017,05,30,13,34,368.00
2017,05,30,13,35,378.90
2017,05,30,13,36,372.20
2017,05,30,13,37,367.00
2017,05,30,13,38,365.30
2017,05,30,13,39,356.20
2017,05,30,13,40,350.00
2017,05,30,13,41,350.00
2017,05,30,13,42,350.00
2017,05,30,13,43,350.00
2017,05,30,13,44,365.40
2017,05,30,13,45,366.00
2017,05,30,13,46,362.20
2017,05,30,13,47,350.70
2017,05,30,13,48,337.50
2017,05,30,13,49,332.00
2017,05,30,13,50,312.20
2017,05,30,13,51,311.00
2017,05,30,13,52,313.80
2017,05,30,13,53,322.40
2017,05,30,13,54,324.00
2017,05,30,13,55,326.20
2017,05,30,13,56,327.00
2017,05,30,13,57,328.30
2017,05,30,13,58,366.00
2017,05,30,13,59,366.00
2017,05,30,14,00,367.80
2017,05,30,14,01,369.10
2017,05,30,14,02,371.30
2017,05,30,14,03,387.50
2017,05,30,14,04,402.30
2017,05,30,14,05,408.00
2017,05,30,14,06,414.50
2017,05,30,14,07,441.20
2017,05,30,14,08,455.00
2017,05,30,14,09,442.00
2017,05,30,14,10,419.60
2017,05,30,14,11,405.20
2017,05,30,14,12,387.00
2017,05,30,14,13,385.30
2017,05,30,14,14,377.10
2017,05,30,14,15,363.30
2017,05,30,14,16,349.10
2017,05,30,14,17,338.50
2017,05,30,14,18,330.00
2017,05,30,14,19,321.10
2017,05,30,14,20,308.10
2017,05,30,14,21,299.00
2017,05,30,14,22,299.00
2017,05,30,14,23,287.80
2017,05,30,14,24,275.70
2017,05,30,14,25,271.30
2017,05,30,14,26,271.00
2017,05,30,14,27,271.00
2017,05,30,14,28,275.60
2017,05,30,14,29,283.00
2017,05,30,14,30,283.00
2017,05,30,14,31,293.10
2017,05,30,14,32,292.70
2017,05,30,14,33,287.00
2017,05,30,14,34,286.00
2017,05,30,14,35,284.40
2017,05,30,14,36,287.00
2017,05,30,14,37,296.30
2017,05,30,14,38,305.00
2017,05,30,14,39,307.70
2017,05,30,14,40,302.30
2017,05,30,14,41,292.00
2017,05,30,14,42,269.20
2017,05,30,14,43,226.30
2017,05,30,14,44,221.00
2017,05,30,14,45,230.90
2017,05,30,14,46,242.00
2017,05,30,14,47,251.70
2017,05,30,14,48,262.20
2017,05,30,14,49,270.80
2017,05,30,14,50,274.00
2017,05,30,14,51,278.30
2017,05,30,14,52,289.30
2017,05,30,14,53,311.70
2017,05,30,14,54,350.20
2017,05,30,14,55,388.90
2017,05,30,14,56,432.20
2017,05,30,14,57,475.10
2017,05,30,14,58,495.20
2017,05,30,14,59,480.30
2017,05,30,15,00,471.10
2017,05,30,15,01,461.70
2017,05,30,15,02,450.80
2017,05,30,15,03,425.00
2017,05,30,15,04,434.00
2017,05,30,15,05,451.20
2017,05,30,15,06,457.00
2017,05,30,15,07,457.00
2017,05,30,15,08,504.00
2017,05,30,15,09,517.90
2017,05,30,15,10,483.00
2017,05,30,15,11,483.00
2017,05,30,15,12,451.50
2017,05,30,15,13,435.50
2017,05,30,15,14,436.00
2017,05,30,15,15,437.90
2017,05,30,15,16,457.20
2017,05,30,15,17,478.60
2017,05,30,15,18,476.00
2017,05,30,15,19,488.30
2017,05,30,15,20,520.20
2017,05,30,15,21,529.00
2017,05,30,15,22,607.00
2017,05,30,15,23,647.60
2017,05,30,15,24,640.00
2017,05,30,15,25,640.00
2017,05,30,15,26,640.00
2017,05,30,15,27,640.00
2017,05,30,15,28,640.00
2017,05,30,15,29,619.90
2017,05,30,15,30,476.10
2017,05,30,15,31,433.70
2017,05,30,15,32,427.10
2017,05,30,15,33,410.40
2017,05,30,15,34,415.10
2017,05,30,15,35,417.00
2017,05,30,15,36,439.20
2017,05,30,15,37,431.20
2017,05,30,15,38,449.80
2017,05,30,15,39,440.90
2017,05,30,15,40,452.40
2017,05,30,15,41,515.30
2017,05,30,15,42,539.40
2017,05,30,15,43,519.90
2017,05,30,15,44,558.50
2017,05,30,15,45,558.30
2017,05,30,15,46,570.20
2017,05,30,15,47,535.90
2017,05,30,15,48,520.50
2017,05,30,15,49,476.00
2017,05,30,15,50,445.80
2017,05,30,15,51,442.60
2017,05,30,15,52,434.70
2017,05,30,15,53,437.00
2017,05,30,15,54,439.80
2017,05,30,15,55,444.60
2017,05,30,15,56,446.00
2017,05,30,15,57,435.00
2017,05,30,15,58,427.00
2017,05,30,15,59,422.40
2017,05,30,16,00,412.50
2017,05,30,16,01,408.80
2017,05,30,16,02,408.00
2017,05,30,16,03,414.20
2017,05,30,16,04,418.60
2017,05,30,16,05,425.20
2017,05,30,16,06,431.50
2017,05,30,16,07,430.90
2017,05,30,16,08,423.10
2017,05,30,16,09,422.00
2017,05,30,16,10,422.00
2017,05,30,16,11,410.10
2017,05,30,16,12,413.20
2017,05,30,16,13,420.00
2017,05,30,16,14,417.60
2017,05,30,16,15,411.90
2017,05,30,16,16,407.00
2017,05,30,16,17,398.20
2017,05,30,16,18,385.00
2017,05,30,16,19,385.00
2017,05,30,16,20,378.60
2017,05,30,16,21,378.10
2017,05,30,16,22,382.60
2017,05,30,16,23,381.80
2017,05,30,16,24,390.80
2017,05,30,16,25,406.90
2017,05,30,16,26,425.00
2017,05,30,16,27,409.10
2017,05,30,16,28,397.00
2017,05,30,16,29,398.40
2017,05,30,16,30,383.70
2017,05,30,16,31,395.60
2017,05,30,16,32,404.40
2017,05,30,16,33,404.10
2017,05,30,16,34,423.40
2017,05,30,16,35,480.00
2017,05,30,16,36,480.00
2017,05,30,16,37,612.00
2017,05,30,16,38,688.80
2017,05,30,16,39,694.00
2017,05,30,16,40,694.00
2017,05,30,16,41,694.00
2017,05,30,16,42,684.80
2017,05,30,16,43,675.00
2017,05,30,16,44,675.00
2017,05,30,16,45,615.50
2017,05,30,16,46,516.60
2017,05,30,16,47,545.00
2017,05,30,16,48,529.10
2017,05,30,16,49,500.00
2017,05,30,16,50,490.60
2017,05,30,16,51,493.50
2017,05,30,16,52,447.10
2017,05,30,16,53,466.00
2017,05,30,16,54,450.00
2017,05,30,16,55,450.00
2017,05,30,16,56,426.30
2017,05,30,16,57,401.00
2017,05,30,16,58,401.00
2017,05,30,16,59,445.00
2017,05,30,17,00,494.50
2017,05,30,17,01,510.20
2017,05,30,17,02,461.00
2017,05,30,17,03,450.70
2017,05,30,17,04,441.00
2017,05,30,17,05,461.20
2017,05,30,17,06,434.10
2017,05,30,17,07,430.90
2017,05,30,17,08,398.80